(3) Juno
ephemeris date magn radius delta ra dec elong phase
Today19 Apr 202510.43.346 AU2.463 AU16h00m-04°48'146.4°9.6°
Opposition14 May 202510.13.352 AU2.372 AU15h42m-02°33'163.3°5.0°
(3) Juno - 2025-04-19
astro.vanbuitenen.nl


 
-1 year
-1 month
-1 day
Now
+1 day
+1 month
+1 year

The interactive orbit chart above shows the body's path through the solar system and its position at the given date. Green and blue lines are shown perpendicular to the ecliptic plane: Green if the path is above the ecliptic plane, blue if it is below. (Left-click and drag to rotate the view; Right-click and drag to move the view; Use scroll wheel to zoom in our out.)

The orbital elements of Juno are:

            e (Eccentricity)                : 0.2559472
            a (Semimajor axis)              : 2.6706696
            i (Inclination)                 : 12.98651
            Ω (Longitude of ascending node) : 169.82994
            ω (Argument of perihelion)      : 247.85972
            M (Mean anomaly)                : 172.45499
            Epoch                           : 2025 May 05

            L (Longitude of perihelion)     : 237.16663
            B (Latitude of perihelion)      : -12.01405
            P (Orbital period in years)     : 4.36            
        

The light curve chart below shows the estimated development of the minor planet's magnitude.


The all-sky chart below shows the path of the minor planet over the same period as the light curve. The current position is marked yellow.





The following chart shows the path of the minor planet in the next few days. The field of view is optimized for (~10x50) binoculars and finderscopes. A more printer-friendly version of the same chart can be found below.




Ephemerides:
Date       Time       RA (2000)    DEC (2000)    delta   radius  elong  phase   PA    magn
2025-04-19 00:00 UT   16 00 46.4   -04 48 39     2.463    3.346  146.4    9.6   257   10.4 
2025-04-19 21:50 UT   16 00 15.6   -04 43 18     2.457    3.346  147.3    9.3   256   10.4 
2025-04-20 00:00 UT   16 00 12.5   -04 42 46     2.456    3.346  147.3    9.3   256   10.4 
2025-04-21 00:00 UT   15 59 37.6   -04 36 54     2.450    3.347  148.3    9.1   255   10.4 
2025-04-22 00:00 UT   15 59 01.6   -04 31 03     2.443    3.347  149.2    8.8   254   10.3 
2025-04-23 00:00 UT   15 58 24.7   -04 25 14     2.437    3.347  150.2    8.6   253   10.3 
2025-04-24 00:00 UT   15 57 46.9   -04 19 26     2.432    3.348  151.1    8.3   251   10.3 
2025-04-25 00:00 UT   15 57 08.1   -04 13 40     2.426    3.348  152.0    8.1   250   10.3 
2025-04-26 00:00 UT   15 56 28.4   -04 07 56     2.421    3.348  152.9    7.9   248   10.3 
2025-04-27 00:00 UT   15 55 47.9   -04 02 15     2.416    3.348  153.8    7.6   247   10.3 
2025-04-28 00:00 UT   15 55 06.6   -03 56 37     2.411    3.349  154.7    7.4   245   10.3 
2025-04-29 00:00 UT   15 54 24.4   -03 51 02     2.406    3.349  155.5    7.1   243   10.2 
2025-04-30 00:00 UT   15 53 41.6   -03 45 30     2.402    3.349  156.4    6.9   241   10.2 
2025-05-01 00:00 UT   15 52 58.0   -03 40 01     2.398    3.350  157.2    6.7   239   10.2 
2025-05-02 00:00 UT   15 52 13.7   -03 34 36     2.394    3.350  157.9    6.5   237   10.2 
2025-05-03 00:00 UT   15 51 28.8   -03 29 16     2.391    3.350  158.7    6.3   234   10.2 
2025-05-04 00:00 UT   15 50 43.4   -03 23 59     2.388    3.350  159.4    6.1   232   10.2 
2025-05-05 00:00 UT   15 49 57.3   -03 18 47     2.385    3.350  160.0    5.9   229   10.2 
2025-05-06 00:00 UT   15 49 10.8   -03 13 39     2.382    3.351  160.6    5.7   226   10.1 
2025-05-07 00:00 UT   15 48 23.8   -03 08 37     2.380    3.351  161.2    5.6   223   10.1 
2025-05-08 00:00 UT   15 47 36.4   -03 03 40     2.378    3.351  161.7    5.4   220   10.1 
2025-05-09 00:00 UT   15 46 48.5   -02 58 48     2.376    3.351  162.2    5.3   216   10.1 
2025-05-10 00:00 UT   15 46 00.4   -02 54 01     2.375    3.352  162.5    5.2   212   10.1 
2025-05-11 00:00 UT   15 45 11.9   -02 49 20     2.373    3.352  162.8    5.1   209   10.1 
2025-05-12 00:00 UT   15 44 23.2   -02 44 46     2.373    3.352  163.1    5.0   205   10.1 
2025-05-13 00:00 UT   15 43 34.2   -02 40 17     2.372    3.352  163.2    5.0   201   10.1 
2025-05-14 00:00 UT   15 42 45.1   -02 35 55     2.372    3.352  163.3    5.0   197   10.1 
2025-05-15 00:00 UT   15 41 55.8   -02 31 39     2.372    3.352  163.3    5.0   193   10.1 
2025-05-16 00:00 UT   15 41 06.4   -02 27 30     2.372    3.353  163.2    5.0   189   10.1 
2025-05-17 00:00 UT   15 40 17.0   -02 23 28     2.372    3.353  163.1    5.0   185   10.1 
2025-05-18 00:00 UT   15 39 27.6   -02 19 32     2.373    3.353  162.8    5.1   181   10.1 
2025-05-19 00:00 UT   15 38 38.2   -02 15 44     2.374    3.353  162.5    5.2   177   10.1 


    Terminology:
            
    delta:  distance between minor planet and earth in AU
    radius: distance between minor planet and sun in AU
    magn:   magnitude (brightness) estimate    
    ra:     right ascension in hours (24h = 360deg)
    dec:    declination in degrees
    elong:  elongation in degrees (angle sun-earth-minor planet)    
    phase:  phase angle in degrees (angle sun-minor planet-earth)        
    AU:     Astronomical Unit (mean distance between earth and sun: 149597870.7 km
    

Orbital elements provided by the MPC (Minor Planet Center).
Calculations by a modified version of AAPlus, a C# implementation of the AA+ project by PJ Naughter from the algorithms presented in the book "Astronomical Algorithms" by Jean Meeus.
NGC2000 dso catalog and star labels from VizieR as provided by the Strasbourg astronomical Data Center.
Tycho2 catalog from the ESO archive.